Time,TemperatureF,DewpointF,PressureIn,WindDirection,WindDirectionDegrees,WindSpeedMPH,WindSpeedGustMPH,Humidity,HourlyPrecipIn,Conditions,Clouds,dailyrainin,SolarRadiationWatts/m^2,SoftwareType,DateUTC
2013-03-06 00:00:00,44.6,4.9,30.64,North,2,3.0,0.0,19,0.00,,,0.00,1,WeatherHawk,2013-03-06 06:00:00,
2013-03-06 00:06:00,44.9,4.0,30.64,North,0,3.0,0.0,18,0.00,,,0.00,0,WeatherHawk,2013-03-06 06:06:00,
2013-03-06 00:11:00,44.6,4.9,30.64,NE,37,4.0,0.0,19,0.00,,,0.00,1,WeatherHawk,2013-03-06 06:11:00,
2013-03-06 00:16:00,44.4,4.8,30.64,North,5,6.0,0.0,19,0.00,,,0.00,0,WeatherHawk,2013-03-06 06:16:00,
2013-03-06 00:22:00,44.0,6.6,30.65,NNE,13,3.0,0.0,21,0.00,,,0.00,1,WeatherHawk,2013-03-06 06:22:00,
2013-03-06 00:28:00,43.2,5.9,30.64,NNW,336,1.0,0.0,21,0.00,,,0.00,0,WeatherHawk,2013-03-06 06:28:00,
2013-03-06 00:33:00,43.7,6.4,30.64,NW,315,3.0,0.0,21,0.00,,,0.00,0,WeatherHawk,2013-03-06 06:33:00,
2013-03-06 00:38:00,43.1,5.9,30.65,NE,38,1.0,0.0,21,0.00,,,0.00,0,WeatherHawk,2013-03-06 06:38:00,
2013-03-06 00:43:00,43.5,8.2,30.65,NNW,338,5.0,0.0,23,0.00,,,0.00,0,WeatherHawk,2013-03-06 06:43:00,
2013-03-06 00:48:00,42.7,7.5,30.66,NNW,334,3.0,0.0,23,0.00,,,0.00,1,WeatherHawk,2013-03-06 06:48:00,
2013-03-06 00:53:00,42.8,8.5,30.65,NNW,344,3.0,0.0,24,0.00,,,0.00,0,WeatherHawk,2013-03-06 06:53:00,
2013-03-06 00:59:00,43.2,7.0,30.65,WNW,294,5.0,0.0,22,0.00,,,0.00,1,WeatherHawk,2013-03-06 06:59:00,
2013-03-06 01:04:00,43.0,5.8,30.65,NW,317,5.0,0.0,21,0.00,,,0.00,0,WeatherHawk,2013-03-06 07:04:00,
2013-03-06 01:09:00,42.9,4.7,30.65,NNW,335,7.0,0.0,20,0.00,,,0.00,0,WeatherHawk,2013-03-06 07:09:00,
2013-03-06 01:15:00,43.0,5.8,30.65,NE,38,8.0,0.0,21,0.00,,,0.00,1,WeatherHawk,2013-03-06 07:15:00,
2013-03-06 01:20:00,42.4,4.2,30.65,NW,316,5.0,0.0,20,0.00,,,0.00,0,WeatherHawk,2013-03-06 07:20:00,
2013-03-06 01:25:00,42.2,4.0,30.65,NW,326,6.0,0.0,20,0.00,,,0.00,0,WeatherHawk,2013-03-06 07:25:00,
2013-03-06 01:30:00,41.9,5.9,30.65,North,351,5.0,0.0,22,0.00,,,0.00,0,WeatherHawk,2013-03-06 07:30:00,
2013-03-06 01:35:00,42.3,7.2,30.66,NNW,341,6.0,-999.0,23,0.00,,,0.00,0,WeatherHawk,2013-03-06 07:35:00,
2013-03-06 01:40:00,41.9,6.8,30.66,NW,325,4.0,0.0,23,0.00,,,0.00,0,WeatherHawk,2013-03-06 07:40:00,
2013-03-06 01:45:00,41.9,6.8,30.66,NNE,27,5.0,0.0,23,0.00,,,0.00,1,WeatherHawk,2013-03-06 07:45:00,
2013-03-06 01:50:00,42.3,8.1,30.67,NNW,335,3.0,0.0,24,0.00,,,0.00,1,WeatherHawk,2013-03-06 07:50:00,
2013-03-06 01:55:00,42.4,8.2,30.67,NE,35,6.0,0.0,24,0.00,,,0.00,0,WeatherHawk,2013-03-06 07:55:00,
2013-03-06 02:00:00,41.6,7.5,30.66,North,10,2.0,0.0,24,0.00,,,0.00,0,WeatherHawk,2013-03-06 08:00:00,
2013-03-06 02:05:00,42.1,8.0,30.67,North,7,4.0,0.0,24,0.00,,,0.00,0,WeatherHawk,2013-03-06 08:05:00,
2013-03-06 02:10:00,41.1,8.0,30.68,NNW,334,0.0,0.0,25,0.00,,,0.00,0,WeatherHawk,2013-03-06 08:10:00,
2013-03-06 02:15:00,42.3,8.1,30.67,NW,314,5.0,0.0,24,0.00,,,0.00,0,WeatherHawk,2013-03-06 08:15:00,
2013-03-06 02:20:00,41.6,8.4,30.67,North,351,4.0,0.0,25,0.00,,,0.00,1,WeatherHawk,2013-03-06 08:20:00,
2013-03-06 02:25:00,41.1,8.8,30.67,NW,323,3.0,0.0,26,0.00,,,0.00,2,WeatherHawk,2013-03-06 08:25:00,
2013-03-06 02:30:00,40.8,8.6,30.68,NNW,337,2.0,-999.0,26,0.00,,,0.00,0,WeatherHawk,2013-03-06 08:30:00,
2013-03-06 02:35:00,41.3,8.2,30.67,NW,326,4.0,0.0,25,0.00,,,0.00,1,WeatherHawk,2013-03-06 08:35:00,
2013-03-06 02:40:00,40.5,8.4,30.66,WNW,302,2.0,-999.0,26,0.00,,,0.00,0,WeatherHawk,2013-03-06 08:40:00,
2013-03-06 02:45:00,40.3,9.0,30.67,North,0,3.0,0.0,27,0.00,,,0.00,0,WeatherHawk,2013-03-06 08:45:00,
2013-03-06 02:50:00,41.1,10.5,30.67,NNW,332,0.0,0.0,28,0.00,,,0.00,0,WeatherHawk,2013-03-06 08:50:00,
2013-03-06 02:55:00,41.9,10.4,30.66,NNE,18,5.0,-999.0,27,0.00,,,0.00,0,WeatherHawk,2013-03-06 08:55:00,
2013-03-06 03:00:00,41.2,6.3,30.66,NNE,18,4.0,0.0,23,0.00,,,0.00,1,WeatherHawk,2013-03-06 09:00:00,
2013-03-06 03:05:00,42.3,5.2,30.64,North,3,7.0,0.0,21,0.00,,,0.00,0,WeatherHawk,2013-03-06 09:05:00,
2013-03-06 03:10:00,42.3,5.2,30.65,NNE,13,6.0,0.0,21,0.00,,,0.00,1,WeatherHawk,2013-03-06 09:10:00,
2013-03-06 03:15:00,42.0,6.9,30.64,NE,52,5.0,0.0,23,0.00,,,0.00,0,WeatherHawk,2013-03-06 09:15:00,
2013-03-06 03:20:00,41.5,4.5,30.64,North,8,5.0,-999.0,21,0.00,,,0.00,1,WeatherHawk,2013-03-06 09:20:00,
2013-03-06 03:25:00,41.7,5.7,30.64,NE,37,6.0,-999.0,22,0.00,,,0.00,1,WeatherHawk,2013-03-06 09:25:00,
2013-03-06 03:30:00,41.9,4.9,30.65,North,11,7.0,0.0,21,0.00,,,0.00,0,WeatherHawk,2013-03-06 09:30:00,
2013-03-06 03:35:00,42.0,5.9,30.65,NNW,338,9.0,0.0,22,0.00,,,0.00,1,WeatherHawk,2013-03-06 09:35:00,
2013-03-06 03:40:00,42.0,3.9,30.65,North,2,6.0,0.0,20,0.00,,,0.00,0,WeatherHawk,2013-03-06 09:40:00,
2013-03-06 03:45:00,41.8,6.8,30.65,North,2,5.0,0.0,23,0.00,,,0.00,1,WeatherHawk,2013-03-06 09:45:00,
2013-03-06 03:50:00,40.6,4.8,30.65,North,5,4.0,0.0,22,0.00,,,0.00,0,WeatherHawk,2013-03-06 09:50:00,
2013-03-06 03:55:00,40.6,5.7,30.65,North,6,1.0,0.0,23,0.00,,,0.00,0,WeatherHawk,2013-03-06 09:55:00,
2013-03-06 04:00:00,41.3,8.2,30.65,NNE,17,5.0,0.0,25,0.00,,,0.00,0,WeatherHawk,2013-03-06 10:00:00,
2013-03-06 04:05:00,40.4,7.4,30.65,NNW,346,5.0,0.0,25,0.00,,,0.00,1,WeatherHawk,2013-03-06 10:05:00,
2013-03-06 04:10:00,41.1,7.1,30.66,NNW,331,6.0,0.0,24,0.00,,,0.00,0,WeatherHawk,2013-03-06 10:10:00,
2013-03-06 04:15:00,40.8,7.8,30.65,NNE,19,5.0,0.0,25,0.00,,,0.00,1,WeatherHawk,2013-03-06 10:15:00,
2013-03-06 04:20:00,40.9,6.9,30.65,North,8,5.0,0.0,24,0.00,,,0.00,0,WeatherHawk,2013-03-06 10:20:00,
2013-03-06 04:25:00,40.7,6.8,30.64,NNE,18,5.0,0.0,24,0.00,,,0.00,0,WeatherHawk,2013-03-06 10:25:00,
2013-03-06 04:30:00,40.9,6.0,30.66,NNE,12,4.0,0.0,23,0.00,,,0.00,0,WeatherHawk,2013-03-06 10:30:00,
2013-03-06 04:35:00,40.6,6.6,30.66,NNE,15,3.0,0.0,24,0.00,,,0.00,1,WeatherHawk,2013-03-06 10:35:00,
2013-03-06 04:40:00,39.9,7.8,30.65,North,7,0.0,-999.0,26,0.00,,,0.00,0,WeatherHawk,2013-03-06 10:40:00,
2013-03-06 04:45:00,40.1,7.2,30.66,North,8,1.0,0.0,25,0.00,,,0.00,1,WeatherHawk,2013-03-06 10:45:00,
2013-03-06 04:50:00,39.0,7.1,30.66,North,8,0.0,0.0,26,0.00,,,0.00,0,WeatherHawk,2013-03-06 10:50:00,
2013-03-06 04:55:00,40.4,9.9,30.67,NNE,21,4.0,0.0,28,0.00,,,0.00,1,WeatherHawk,2013-03-06 10:55:00,
2013-03-06 05:00:00,39.8,8.6,30.67,NE,42,0.0,0.0,27,0.00,,,0.00,0,WeatherHawk,2013-03-06 11:00:00,
2013-03-06 05:05:00,39.4,8.3,30.67,WNW,303,0.0,0.0,27,0.00,,,0.00,0,WeatherHawk,2013-03-06 11:05:00,
2013-03-06 05:10:00,40.2,8.9,30.66,NE,39,4.0,0.0,27,0.00,,,0.00,0,WeatherHawk,2013-03-06 11:10:00,
2013-03-06 05:15:00,40.3,8.2,30.67,NNE,12,2.0,0.0,26,0.00,,,0.00,0,WeatherHawk,2013-03-06 11:15:00,
2013-03-06 05:20:00,38.9,8.6,30.67,NNE,23,0.0,0.0,28,0.00,,,0.00,1,WeatherHawk,2013-03-06 11:20:00,
2013-03-06 05:25:00,40.1,8.8,30.67,NE,49,3.0,0.0,27,0.00,,,0.00,1,WeatherHawk,2013-03-06 11:25:00,
2013-03-06 05:30:00,39.7,8.5,30.67,NNE,31,3.0,-999.0,27,0.00,,,0.00,0,WeatherHawk,2013-03-06 11:30:00,
2013-03-06 05:35:00,39.6,8.4,30.68,North,11,0.0,-999.0,27,0.00,,,0.00,0,WeatherHawk,2013-03-06 11:35:00,
2013-03-06 05:40:00,40.1,9.6,30.67,NE,35,2.0,-999.0,28,0.00,,,0.00,1,WeatherHawk,2013-03-06 11:40:00,
2013-03-06 05:45:00,39.3,9.7,30.68,NNE,19,0.0,0.0,29,0.00,,,0.00,1,WeatherHawk,2013-03-06 11:45:00,
2013-03-06 05:50:00,38.3,8.1,30.68,NNE,21,0.0,0.0,28,0.00,,,0.00,0,WeatherHawk,2013-03-06 11:50:00,
2013-03-06 05:55:00,38.6,9.2,30.69,NE,49,0.0,0.0,29,0.00,,,0.00,1,WeatherHawk,2013-03-06 11:55:00,
2013-03-06 06:00:00,39.4,7.4,30.69,NNE,29,2.0,0.0,26,0.00,,,0.00,0,WeatherHawk,2013-03-06 12:00:00,
2013-03-06 06:05:00,39.5,5.7,30.69,NE,39,6.0,0.0,24,0.00,,,0.00,1,WeatherHawk,2013-03-06 12:05:00,
2013-03-06 06:10:00,39.5,6.6,30.69,NNE,28,8.0,0.0,25,0.00,,,0.00,1,WeatherHawk,2013-03-06 12:10:00,
2013-03-06 06:15:00,39.5,7.5,30.70,NNE,31,5.0,-999.0,26,0.00,,,0.00,1,WeatherHawk,2013-03-06 12:15:00,
2013-03-06 06:20:00,39.8,6.0,30.70,NNE,21,8.0,0.0,24,0.00,,,0.00,1,WeatherHawk,2013-03-06 12:20:00,
2013-03-06 06:25:00,39.3,5.6,30.71,NNE,23,5.0,-999.0,24,0.00,,,0.00,1,WeatherHawk,2013-03-06 12:25:00,
2013-03-06 06:30:00,39.1,6.3,30.71,NNE,18,4.0,0.0,25,0.00,,,0.00,0,WeatherHawk,2013-03-06 12:30:00,
2013-03-06 06:35:00,38.9,6.1,30.71,NE,41,4.0,0.0,25,0.00,,,0.00,1,WeatherHawk,2013-03-06 12:35:00,
2013-03-06 06:40:00,39.3,6.4,30.70,NNE,23,6.0,-999.0,25,0.00,,,0.00,0,WeatherHawk,2013-03-06 12:40:00,
2013-03-06 06:45:00,39.1,7.1,30.70,NNE,18,7.0,-999.0,26,0.00,,,0.00,5,WeatherHawk,2013-03-06 12:45:00,
2013-03-06 06:50:00,39.1,7.1,30.70,NNE,16,4.0,0.0,26,0.00,,,0.00,7,WeatherHawk,2013-03-06 12:50:00,
2013-03-06 06:55:00,39.2,8.0,30.71,NE,55,4.0,0.0,27,0.00,,,0.00,16,WeatherHawk,2013-03-06 12:55:00,
2013-03-06 07:00:00,38.8,6.0,30.71,NNE,30,5.0,0.0,25,0.00,,,0.00,26,WeatherHawk,2013-03-06 13:00:00,
2013-03-06 07:05:00,39.0,7.1,30.72,NNE,19,4.0,-999.0,26,0.00,,,0.00,34,WeatherHawk,2013-03-06 13:05:00,
2013-03-06 07:10:00,39.0,6.2,30.72,NNE,24,3.0,-999.0,25,0.00,,,0.00,49,WeatherHawk,2013-03-06 13:10:00,
2013-03-06 07:15:00,38.9,6.1,30.72,NNE,20,2.0,0.0,25,0.00,,,0.00,57,WeatherHawk,2013-03-06 13:15:00,
2013-03-06 07:20:00,38.9,7.0,30.73,NNE,21,1.0,-999.0,26,0.00,,,0.00,66,WeatherHawk,2013-03-06 13:20:00,
2013-03-06 07:25:00,39.0,6.2,30.73,NNE,19,2.0,-999.0,25,0.00,,,0.00,79,WeatherHawk,2013-03-06 13:25:00,
2013-03-06 07:30:00,39.4,5.6,30.73,NE,47,2.0,0.0,24,0.00,,,0.00,91,WeatherHawk,2013-03-06 13:30:00,
2013-03-06 07:35:00,39.8,4.1,30.73,ENE,74,3.0,0.0,22,0.00,,,0.00,101,WeatherHawk,2013-03-06 13:35:00,
2013-03-06 07:40:00,39.9,5.1,30.73,North,7,5.0,0.0,23,0.00,,,0.00,119,WeatherHawk,2013-03-06 13:40:00,
2013-03-06 07:45:00,40.3,4.5,30.73,NNE,33,6.0,0.0,22,0.00,,,0.00,136,WeatherHawk,2013-03-06 13:45:00,
2013-03-06 07:50:00,40.6,2.7,30.71,NNE,23,7.0,0.0,20,0.00,,,0.00,152,WeatherHawk,2013-03-06 13:50:00,
2013-03-06 07:55:00,41.6,5.6,30.71,ENE,71,4.0,0.0,22,0.00,,,0.00,167,WeatherHawk,2013-03-06 13:55:00,
2013-03-06 08:00:00,43.0,5.8,30.72,ESE,107,3.0,0.0,21,0.00,,,0.00,185,WeatherHawk,2013-03-06 14:00:00,
2013-03-06 08:05:00,42.0,3.9,30.72,East,92,4.0,0.0,20,0.00,,,0.00,199,WeatherHawk,2013-03-06 14:05:00,
2013-03-06 08:10:00,42.4,4.2,30.73,NE,53,6.0,-999.0,20,0.00,,,0.00,216,WeatherHawk,2013-03-06 14:10:00,
2013-03-06 08:15:00,41.4,2.2,30.72,NE,36,6.0,0.0,19,0.00,,,0.00,232,WeatherHawk,2013-03-06 14:15:00,
2013-03-06 08:20:00,43.2,4.9,30.72,North,8,4.0,0.0,20,0.00,,,0.00,248,WeatherHawk,2013-03-06 14:20:00,
2013-03-06 08:25:00,42.9,-0.1,30.73,NW,322,3.0,-999.0,16,0.00,,,0.00,270,WeatherHawk,2013-03-06 14:25:00,
2013-03-06 08:30:00,41.2,1.0,30.72,NNE,31,7.0,0.0,18,0.00,,,0.00,290,WeatherHawk,2013-03-06 14:30:00,
2013-03-06 08:35:00,41.9,-2.4,30.72,NE,50,7.0,0.0,15,0.00,,,0.00,307,WeatherHawk,2013-03-06 14:35:00,
2013-03-06 08:40:00,42.0,-2.3,30.72,NNW,327,6.0,0.0,15,0.00,,,0.00,341,WeatherHawk,2013-03-06 14:40:00,
2013-03-06 08:45:00,42.5,-1.9,30.72,NE,44,5.0,0.0,15,0.00,,,0.00,367,WeatherHawk,2013-03-06 14:45:00,
2013-03-06 08:50:00,42.6,-3.2,30.71,NNE,24,7.0,0.0,14,0.00,,,0.00,380,WeatherHawk,2013-03-06 14:50:00,
2013-03-06 08:55:00,44.4,-6.7,30.72,SE,129,3.0,0.0,11,0.00,,,0.00,436,WeatherHawk,2013-03-06 14:55:00,
2013-03-06 09:00:00,43.8,-7.2,30.72,NE,48,3.0,0.0,11,0.00,,,0.00,375,WeatherHawk,2013-03-06 15:00:00,
2013-03-06 09:05:00,43.8,-3.8,30.72,NE,54,8.0,0.0,13,0.00,,,0.00,292,WeatherHawk,2013-03-06 15:05:00,
2013-03-06 09:10:00,43.7,-5.5,30.70,NNW,328,6.0,0.0,12,0.00,,,0.00,323,WeatherHawk,2013-03-06 15:10:00,
2013-03-06 09:15:00,45.6,-2.3,30.71,ENE,76,7.0,0.0,13,0.00,,,0.00,419,WeatherHawk,2013-03-06 15:15:00,
2013-03-06 09:20:00,44.4,-8.7,30.71,ENE,57,6.0,0.0,10,0.00,,,0.00,448,WeatherHawk,2013-03-06 15:20:00,
2013-03-06 09:25:00,44.4,-1.7,30.70,NNE,23,8.0,0.0,14,0.00,,,0.00,479,WeatherHawk,2013-03-06 15:25:00,
2013-03-06 09:30:00,46.6,-5.1,30.71,NNE,12,6.0,0.0,11,0.00,,,0.00,459,WeatherHawk,2013-03-06 15:30:00,
2013-03-06 09:35:00,45.6,-7.8,30.69,NE,42,13.0,0.0,10,0.00,,,0.00,536,WeatherHawk,2013-03-06 15:35:00,
2013-03-06 09:40:00,43.7,-5.5,30.70,NNE,24,8.0,0.0,12,0.00,,,0.00,421,WeatherHawk,2013-03-06 15:40:00,
2013-03-06 09:45:00,45.2,-8.1,30.69,North,5,7.0,0.0,10,0.00,,,0.00,568,WeatherHawk,2013-03-06 15:45:00,
2013-03-06 09:50:00,44.1,-13.5,30.69,NNE,24,11.0,0.0,8,0.00,,,0.00,625,WeatherHawk,2013-03-06 15:50:00,
2013-03-06 09:55:00,46.4,-9.3,30.69,ENE,69,2.0,-999.0,9,0.00,,,0.00,411,WeatherHawk,2013-03-06 15:55:00,
2013-03-06 10:00:00,47.0,-8.9,30.68,North,2,3.0,-999.0,9,0.00,,,0.00,370,WeatherHawk,2013-03-06 16:00:00,
2013-03-06 10:05:00,45.1,-6.2,30.68,NNE,15,4.0,0.0,11,0.00,,,0.00,477,WeatherHawk,2013-03-06 16:05:00,
2013-03-06 10:10:00,46.9,-8.9,30.68,NNE,27,2.0,0.0,9,0.00,,,0.00,620,WeatherHawk,2013-03-06 16:10:00,
2013-03-06 10:15:00,48.3,-3.7,30.68,East,81,4.0,0.0,11,0.00,,,0.00,611,WeatherHawk,2013-03-06 16:15:00,
2013-03-06 10:20:00,46.6,-7.1,30.67,NNE,21,5.0,0.0,10,0.00,,,0.00,633,WeatherHawk,2013-03-06 16:20:00,
2013-03-06 10:25:00,46.5,-14.3,30.66,NE,52,6.0,0.0,7,0.00,,,0.00,656,WeatherHawk,2013-03-06 16:25:00,
2013-03-06 10:30:00,51.2,-10.8,30.66,NE,47,2.0,0.0,7,0.00,,,0.00,651,WeatherHawk,2013-03-06 16:30:00,
2013-03-06 10:35:00,49.2,-12.2,30.65,North,349,3.0,0.0,7,0.00,,,0.00,677,WeatherHawk,2013-03-06 16:35:00,
2013-03-06 10:40:00,50.6,-11.2,30.66,East,83,3.0,-999.0,7,0.00,,,0.00,689,WeatherHawk,2013-03-06 16:40:00,
2013-03-06 10:45:00,49.6,-9.3,30.65,NNE,28,2.0,0.0,8,0.00,,,0.00,747,WeatherHawk,2013-03-06 16:45:00,
2013-03-06 10:50:00,48.6,-12.7,30.65,WNW,303,2.0,0.0,7,0.00,,,0.00,753,WeatherHawk,2013-03-06 16:50:00,
2013-03-06 10:55:00,52.1,-7.4,30.65,WSW,243,2.0,0.0,8,0.00,,,0.00,536,WeatherHawk,2013-03-06 16:55:00,
2013-03-06 11:00:00,50.4,-6.2,30.65,North,2,0.0,0.0,9,0.00,,,0.00,764,WeatherHawk,2013-03-06 17:00:00,
2013-03-06 11:05:00,55.5,-2.4,30.64,WNW,288,0.0,0.0,9,0.00,,,0.00,530,WeatherHawk,2013-03-06 17:05:00,
2013-03-06 11:10:00,51.4,-5.5,30.64,NE,51,4.0,0.0,9,0.00,,,0.00,805,WeatherHawk,2013-03-06 17:10:00,
2013-03-06 11:15:00,51.1,-5.7,30.64,East,84,5.0,0.0,9,0.00,,,0.00,610,WeatherHawk,2013-03-06 17:15:00,
2013-03-06 11:20:00,51.6,-7.8,30.63,WNW,299,2.0,0.0,8,0.00,,,0.00,754,WeatherHawk,2013-03-06 17:20:00,
2013-03-06 11:25:00,49.6,-6.8,30.63,East,95,3.0,-999.0,9,0.00,,,0.00,763,WeatherHawk,2013-03-06 17:25:00,
2013-03-06 11:30:00,51.2,-5.6,30.63,WNW,301,0.0,0.0,9,0.00,,,0.00,784,WeatherHawk,2013-03-06 17:30:00,
2013-03-06 11:35:00,53.2,-4.1,30.62,North,350,2.0,0.0,9,0.00,,,0.00,780,WeatherHawk,2013-03-06 17:35:00,
2013-03-06 11:40:00,52.5,-4.7,30.63,SW,218,6.0,-999.0,9,0.00,,,0.00,795,WeatherHawk,2013-03-06 17:40:00,
2013-03-06 11:45:00,57.2,-13.1,30.61,NNW,328,0.0,0.0,5,0.00,,,0.00,793,WeatherHawk,2013-03-06 17:45:00,
2013-03-06 11:50:00,53.6,-15.6,30.62,NNE,12,2.0,0.0,5,0.00,,,0.00,797,WeatherHawk,2013-03-06 17:50:00,
2013-03-06 11:55:00,50.8,-6.0,30.63,North,10,2.0,0.0,9,0.00,,,0.00,774,WeatherHawk,2013-03-06 17:55:00,
2013-03-06 12:00:00,56.2,-1.8,30.61,North,349,0.0,0.0,9,0.00,,,0.00,804,WeatherHawk,2013-03-06 18:00:00,
2013-03-06 12:05:00,54.5,-3.1,30.60,NNW,348,3.0,0.0,9,0.00,,,0.00,814,WeatherHawk,2013-03-06 18:05:00,
2013-03-06 12:10:00,50.8,-5.9,30.60,NNE,21,5.0,0.0,9,0.00,,,0.00,810,WeatherHawk,2013-03-06 18:10:00,
2013-03-06 12:15:00,52.2,-4.9,30.59,NNE,19,1.0,0.0,9,0.00,,,0.00,833,WeatherHawk,2013-03-06 18:15:00,
2013-03-06 12:20:00,53.2,-15.9,30.59,NE,40,3.0,0.0,5,0.00,,,0.00,798,WeatherHawk,2013-03-06 18:20:00,
2013-03-06 12:25:00,57.4,-13.0,30.59,NNE,15,0.0,0.0,5,0.00,,,0.00,820,WeatherHawk,2013-03-06 18:25:00,
2013-03-06 12:30:00,55.7,-14.2,30.59,North,5,2.0,-999.0,5,0.00,,,0.00,853,WeatherHawk,2013-03-06 18:30:00,
2013-03-06 12:35:00,57.7,-12.8,30.57,SE,141,1.0,0.0,5,0.00,,,0.00,871,WeatherHawk,2013-03-06 18:35:00,
2013-03-06 12:40:00,53.3,-15.9,30.57,NNE,15,3.0,0.0,5,0.00,,,0.00,733,WeatherHawk,2013-03-06 18:40:00,
2013-03-06 12:45:00,58.7,-12.1,30.57,NNW,337,2.0,0.0,5,0.00,,,0.00,855,WeatherHawk,2013-03-06 18:45:00,
2013-03-06 12:50:00,54.7,-14.9,30.56,East,88,2.0,0.0,5,0.00,,,0.00,841,WeatherHawk,2013-03-06 18:50:00,
2013-03-06 12:55:00,57.8,-12.6,30.56,SE,126,0.0,0.0,5,0.00,,,0.00,831,WeatherHawk,2013-03-06 18:55:00,
2013-03-06 13:00:00,57.8,-12.7,30.56,NNW,348,0.0,0.0,5,0.00,,,0.00,774,WeatherHawk,2013-03-06 19:00:00,
2013-03-06 13:05:00,58.9,-11.9,30.55,SE,133,0.0,0.0,5,0.00,,,0.00,852,WeatherHawk,2013-03-06 19:05:00,
2013-03-06 13:10:00,55.0,-14.7,30.55,SSW,192,4.0,0.0,5,0.00,,,0.00,806,WeatherHawk,2013-03-06 19:10:00,
2013-03-06 13:15:00,60.5,-10.8,30.55,SSE,155,0.0,0.0,5,0.00,,,0.00,871,WeatherHawk,2013-03-06 19:15:00,
2013-03-06 13:20:00,54.9,-14.7,30.54,ENE,64,2.0,0.0,5,0.00,,,0.00,835,WeatherHawk,2013-03-06 19:20:00,
2013-03-06 13:25:00,54.9,-14.7,30.54,West,265,5.0,0.0,5,0.00,,,0.00,838,WeatherHawk,2013-03-06 19:25:00,
2013-03-06 13:30:00,56.2,-13.8,30.54,NNW,327,3.0,0.0,5,0.00,,,0.00,838,WeatherHawk,2013-03-06 19:30:00,
2013-03-06 13:35:00,61.5,-10.1,30.53,WSW,238,0.0,0.0,5,0.00,,,0.00,859,WeatherHawk,2013-03-06 19:35:00,
2013-03-06 13:40:00,59.7,-11.3,30.52,WSW,255,0.0,0.0,5,0.00,,,0.00,832,WeatherHawk,2013-03-06 19:40:00,
2013-03-06 13:45:00,59.9,-11.2,30.52,NE,49,0.0,0.0,5,0.00,,,0.00,822,WeatherHawk,2013-03-06 19:45:00,
2013-03-06 13:50:00,57.7,-12.7,30.50,North,8,2.0,0.0,5,0.00,,,0.00,794,WeatherHawk,2013-03-06 19:50:00,
2013-03-06 13:55:00,56.7,-13.5,30.51,North,0,4.0,0.0,5,0.00,,,0.00,780,WeatherHawk,2013-03-06 19:55:00,
2013-03-06 14:00:00,55.7,-14.2,30.51,NNE,17,7.0,0.0,5,0.00,,,0.00,771,WeatherHawk,2013-03-06 20:00:00,
2013-03-06 14:05:00,60.6,-10.7,30.49,ENE,70,1.0,0.0,5,0.00,,,0.00,788,WeatherHawk,2013-03-06 20:05:00,
2013-03-06 14:10:00,59.9,-11.2,30.50,West,277,2.0,-999.0,5,0.00,,,0.00,790,WeatherHawk,2013-03-06 20:10:00,
2013-03-06 14:15:00,60.8,-10.5,30.49,SSE,167,0.0,0.0,5,0.00,,,0.00,800,WeatherHawk,2013-03-06 20:15:00,
2013-03-06 14:20:00,57.4,-13.0,30.49,NNE,26,4.0,0.0,5,0.00,,,0.00,728,WeatherHawk,2013-03-06 20:20:00,
2013-03-06 14:25:00,58.8,-11.9,30.49,NNE,30,2.0,0.0,5,0.00,,,0.00,641,WeatherHawk,2013-03-06 20:25:00,
2013-03-06 14:30:00,57.2,-13.1,30.51,NNE,25,5.0,0.0,5,0.00,,,0.00,738,WeatherHawk,2013-03-06 20:30:00,
2013-03-06 14:35:00,62.4,-9.4,30.49,NE,48,2.0,0.0,5,0.00,,,0.00,729,WeatherHawk,2013-03-06 20:35:00,
2013-03-06 14:40:00,63.2,-8.9,30.48,East,89,0.0,0.0,5,0.00,,,0.00,678,WeatherHawk,2013-03-06 20:40:00,
2013-03-06 14:45:00,63.6,-8.6,30.47,WSW,242,0.0,0.0,5,0.00,,,0.00,630,WeatherHawk,2013-03-06 20:45:00,
2013-03-06 14:50:00,62.6,-9.3,30.47,NNW,344,0.0,0.0,5,0.00,,,0.00,661,WeatherHawk,2013-03-06 20:50:00,
2013-03-06 14:55:00,58.9,-11.9,30.47,North,0,1.0,0.0,5,0.00,,,0.00,626,WeatherHawk,2013-03-06 20:55:00,
2013-03-06 15:00:00,58.0,-12.5,30.46,ESE,108,4.0,0.0,5,0.00,,,0.00,230,WeatherHawk,2013-03-06 21:00:00,
2013-03-06 15:05:00,61.4,-10.1,30.47,South,181,2.0,-999.0,5,0.00,,,0.00,803,WeatherHawk,2013-03-06 21:05:00,
2013-03-06 15:10:00,61.6,-10.0,30.47,NE,48,2.0,-999.0,5,0.00,,,0.00,631,WeatherHawk,2013-03-06 21:10:00,
2013-03-06 15:15:00,58.7,-12.0,30.46,NNE,24,5.0,0.0,5,0.00,,,0.00,708,WeatherHawk,2013-03-06 21:15:00,
2013-03-06 15:20:00,61.3,-10.2,30.46,East,95,7.0,-999.0,5,0.00,,,0.00,662,WeatherHawk,2013-03-06 21:20:00,
2013-03-06 15:25:00,62.4,-9.4,30.45,ESE,122,1.0,0.0,5,0.00,,,0.00,554,WeatherHawk,2013-03-06 21:25:00,
2013-03-06 15:30:00,61.8,-9.8,30.45,ESE,111,2.0,-999.0,5,0.00,,,0.00,473,WeatherHawk,2013-03-06 21:30:00,
2013-03-06 15:35:00,59.8,-11.3,30.45,SE,126,1.0,0.0,5,0.00,,,0.00,370,WeatherHawk,2013-03-06 21:35:00,
2013-03-06 15:40:00,59.8,-11.2,30.45,SSW,197,2.0,0.0,5,0.00,,,0.00,322,WeatherHawk,2013-03-06 21:40:00,
2013-03-06 15:45:00,58.9,-11.9,30.46,SE,142,5.0,0.0,5,0.00,,,0.00,235,WeatherHawk,2013-03-06 21:45:00,
2013-03-06 15:50:00,60.3,-10.9,30.46,South,187,5.0,0.0,5,0.00,,,0.00,247,WeatherHawk,2013-03-06 21:50:00,
2013-03-06 15:55:00,59.1,-11.8,30.46,NE,46,3.0,0.0,5,0.00,,,0.00,271,WeatherHawk,2013-03-06 21:55:00,
2013-03-06 16:00:00,60.2,-11.0,30.47,SE,138,3.0,0.0,5,0.00,,,0.00,334,WeatherHawk,2013-03-06 22:00:00,
2013-03-06 16:05:00,59.6,-11.4,30.46,South,177,4.0,-999.0,5,0.00,,,0.00,311,WeatherHawk,2013-03-06 22:05:00,
2013-03-06 16:10:00,61.4,-10.1,30.46,West,269,0.0,0.0,5,0.00,,,0.00,216,WeatherHawk,2013-03-06 22:10:00,
2013-03-06 16:15:00,60.8,-10.5,30.45,NE,43,0.0,0.0,5,0.00,,,0.00,171,WeatherHawk,2013-03-06 22:15:00,
2013-03-06 16:20:00,61.8,-9.9,30.45,NE,47,0.0,0.0,5,0.00,,,0.00,160,WeatherHawk,2013-03-06 22:20:00,
2013-03-06 16:25:00,60.6,-10.7,30.44,NNE,28,2.0,0.0,5,0.00,,,0.00,153,WeatherHawk,2013-03-06 22:25:00,
2013-03-06 16:30:00,60.5,-10.8,30.44,SE,136,2.0,0.0,5,0.00,,,0.00,141,WeatherHawk,2013-03-06 22:30:00,
2013-03-06 16:35:00,60.3,-10.9,30.44,SE,130,3.0,0.0,5,0.00,,,0.00,129,WeatherHawk,2013-03-06 22:35:00,
2013-03-06 16:41:00,59.6,-1.8,30.44,SE,127,7.0,0.0,8,0.00,,,0.00,112,WeatherHawk,2013-03-06 22:41:00,
2013-03-06 16:46:00,60.3,1.3,30.44,WSW,250,4.0,0.0,9,0.00,,,0.00,123,WeatherHawk,2013-03-06 22:46:00,
2013-03-06 16:51:00,59.6,-1.8,30.44,SE,126,3.0,0.0,8,0.00,,,0.00,135,WeatherHawk,2013-03-06 22:51:00,
2013-03-06 16:57:00,59.9,3.2,30.43,East,98,3.0,0.0,10,0.00,,,0.00,135,WeatherHawk,2013-03-06 22:57:00,
2013-03-06 17:02:00,59.7,3.1,30.45,East,87,3.0,0.0,10,0.00,,,0.00,137,WeatherHawk,2013-03-06 23:02:00,
2013-03-06 17:07:00,59.4,2.8,30.44,North,349,1.0,0.0,10,0.00,,,0.00,118,WeatherHawk,2013-03-06 23:07:00,
2013-03-06 17:12:00,59.2,0.4,30.44,ENE,59,0.0,0.0,9,0.00,,,0.00,106,WeatherHawk,2013-03-06 23:12:00,
2013-03-06 17:17:00,60.1,-1.4,30.45,SE,131,1.0,0.0,8,0.00,,,0.00,109,WeatherHawk,2013-03-06 23:17:00,
2013-03-06 17:22:00,59.1,0.3,30.45,ENE,57,4.0,0.0,9,0.00,,,0.00,112,WeatherHawk,2013-03-06 23:22:00,
2013-03-06 17:27:00,59.7,-1.7,30.45,SE,124,1.0,0.0,8,0.00,,,0.00,103,WeatherHawk,2013-03-06 23:27:00,
2013-03-06 17:32:00,59.3,0.5,30.45,East,91,1.0,0.0,9,0.00,,,0.00,91,WeatherHawk,2013-03-06 23:32:00,
2013-03-06 17:37:00,58.9,-8.2,30.45,ESE,111,3.0,0.0,6,0.00,,,0.00,77,WeatherHawk,2013-03-06 23:37:00,
2013-03-06 17:42:00,58.5,-12.2,30.45,NE,53,2.0,0.0,5,0.00,,,0.00,62,WeatherHawk,2013-03-06 23:42:00,
2013-03-06 17:47:00,58.6,2.2,30.46,NE,39,2.0,0.0,10,0.00,,,0.00,51,WeatherHawk,2013-03-06 23:47:00,
2013-03-06 17:52:00,58.6,2.2,30.46,WSW,248,0.0,0.0,10,0.00,,,0.00,44,WeatherHawk,2013-03-06 23:52:00,
2013-03-06 17:57:00,58.9,2.4,30.45,NNE,20,0.0,0.0,10,0.00,,,0.00,44,WeatherHawk,2013-03-06 23:57:00,
2013-03-06 18:02:00,58.1,1.9,30.45,ENE,68,3.0,0.0,10,0.00,,,0.00,38,WeatherHawk,2013-03-07 00:02:00,
2013-03-06 18:07:00,57.9,1.7,30.45,NE,47,3.0,0.0,10,0.00,,,0.00,27,WeatherHawk,2013-03-07 00:07:00,
2013-03-06 18:13:00,58.0,-2.9,30.45,SSE,153,0.0,0.0,8,0.00,,,0.00,17,WeatherHawk,2013-03-07 00:13:00,
2013-03-06 18:18:00,57.3,1.2,30.45,West,276,0.0,0.0,10,0.00,,,0.00,13,WeatherHawk,2013-03-07 00:18:00,
2013-03-06 18:23:00,57.5,1.4,30.46,East,79,1.0,0.0,10,0.00,,,0.00,8,WeatherHawk,2013-03-07 00:23:00,
2013-03-06 18:28:00,57.7,1.6,30.46,SSE,149,3.0,0.0,10,0.00,,,0.00,3,WeatherHawk,2013-03-07 00:28:00,
2013-03-06 18:33:00,57.3,1.2,30.45,NE,49,0.0,0.0,10,0.00,,,0.00,3,WeatherHawk,2013-03-07 00:33:00,
2013-03-06 18:38:00,57.4,1.3,30.46,SE,137,2.0,0.0,10,0.00,,,0.00,1,WeatherHawk,2013-03-07 00:38:00,
2013-03-06 18:43:00,57.1,1.1,30.47,SSE,147,0.0,0.0,10,0.00,,,0.00,0,WeatherHawk,2013-03-07 00:43:00,
2013-03-06 18:48:00,57.7,1.5,30.46,East,101,0.0,0.0,10,0.00,,,0.00,0,WeatherHawk,2013-03-07 00:48:00,
2013-03-06 18:54:00,57.2,1.1,30.46,ESE,113,0.0,0.0,10,0.00,,,0.00,1,WeatherHawk,2013-03-07 00:54:00,
2013-03-06 18:59:00,57.4,1.3,30.46,East,98,3.0,0.0,10,0.00,,,0.00,0,WeatherHawk,2013-03-07 00:59:00,
2013-03-06 19:04:00,58.0,1.7,30.46,East,97,2.0,0.0,10,0.00,,,0.00,0,WeatherHawk,2013-03-07 01:04:00,
2013-03-06 19:09:00,57.0,1.0,30.47,East,93,0.0,0.0,10,0.00,,,0.00,0,WeatherHawk,2013-03-07 01:09:00,
2013-03-06 19:14:00,57.5,1.4,30.46,East,101,3.0,0.0,10,0.00,,,0.00,0,WeatherHawk,2013-03-07 01:14:00,
2013-03-06 19:19:00,57.1,1.1,30.46,SE,125,2.0,0.0,10,0.00,,,0.00,1,WeatherHawk,2013-03-07 01:19:00,
2013-03-06 19:24:00,57.5,1.4,30.46,ESE,119,3.0,0.0,10,0.00,,,0.00,1,WeatherHawk,2013-03-07 01:24:00,
2013-03-06 19:29:00,56.8,0.8,30.46,East,93,2.0,0.0,10,0.00,,,0.00,0,WeatherHawk,2013-03-07 01:29:00,
2013-03-06 19:35:00,56.7,0.8,30.46,ESE,106,4.0,0.0,10,0.00,,,0.00,0,WeatherHawk,2013-03-07 01:35:00,
2013-03-06 19:40:00,56.7,0.7,30.46,ESE,112,2.0,0.0,10,0.00,,,0.00,0,WeatherHawk,2013-03-07 01:40:00,
2013-03-06 19:45:00,57.2,1.2,30.45,ESE,122,3.0,0.0,10,0.00,,,0.00,1,WeatherHawk,2013-03-07 01:45:00,
2013-03-06 19:50:00,56.9,0.9,30.45,East,94,0.0,-999.0,10,0.00,,,0.00,1,WeatherHawk,2013-03-07 01:50:00,
2013-03-06 19:55:00,56.9,0.9,30.45,SSW,196,1.0,0.0,10,0.00,,,0.00,1,WeatherHawk,2013-03-07 01:55:00,
2013-03-06 20:00:00,56.4,0.5,30.45,SE,133,5.0,0.0,10,0.00,,,0.00,0,WeatherHawk,2013-03-07 02:00:00,
2013-03-06 20:05:00,56.0,0.2,30.44,ESE,112,3.0,-999.0,10,0.00,,,0.00,0,WeatherHawk,2013-03-07 02:05:00,
2013-03-06 20:10:00,56.0,0.2,30.46,SE,144,4.0,0.0,10,0.00,,,0.00,0,WeatherHawk,2013-03-07 02:10:00,
2013-03-06 20:15:00,55.7,0.0,30.45,ESE,118,1.0,-999.0,10,0.00,,,0.00,1,WeatherHawk,2013-03-07 02:15:00,
2013-03-06 20:20:00,56.0,0.2,30.45,ESE,107,4.0,0.0,10,0.00,,,0.00,0,WeatherHawk,2013-03-07 02:20:00,
2013-03-06 20:25:00,56.7,-1.5,30.45,ESE,117,2.0,-999.0,9,0.00,,,0.00,0,WeatherHawk,2013-03-07 02:25:00,
2013-03-06 20:30:00,56.2,-1.8,30.46,ESE,122,4.0,0.0,9,0.00,,,0.00,0,WeatherHawk,2013-03-07 02:30:00,
2013-03-06 20:35:00,56.0,-2.0,30.46,ESE,104,3.0,0.0,9,0.00,,,0.00,0,WeatherHawk,2013-03-07 02:35:00,
2013-03-06 20:40:00,55.5,-2.4,30.45,South,186,4.0,0.0,9,0.00,,,0.00,1,WeatherHawk,2013-03-07 02:40:00,
2013-03-06 20:45:00,56.0,-2.0,30.45,SE,129,3.0,-999.0,9,0.00,,,0.00,0,WeatherHawk,2013-03-07 02:45:00,
2013-03-06 20:50:00,55.9,-2.1,30.45,SE,137,0.0,-999.0,9,0.00,,,0.00,0,WeatherHawk,2013-03-07 02:50:00,
2013-03-06 20:55:00,54.9,-2.8,30.44,SSE,162,3.0,0.0,9,0.00,,,0.00,1,WeatherHawk,2013-03-07 02:55:00,
2013-03-06 21:00:00,54.9,-2.8,30.46,SE,134,0.0,-999.0,9,0.00,,,0.00,1,WeatherHawk,2013-03-07 03:00:00,
2013-03-06 21:05:00,54.3,-3.3,30.45,SE,132,3.0,0.0,9,0.00,,,0.00,0,WeatherHawk,2013-03-07 03:05:00,
2013-03-06 21:10:00,54.6,-3.1,30.44,SE,125,2.0,0.0,9,0.00,,,0.00,0,WeatherHawk,2013-03-07 03:10:00,
2013-03-06 21:15:00,54.4,-3.2,30.44,ESE,110,0.0,0.0,9,0.00,,,0.00,0,WeatherHawk,2013-03-07 03:15:00,
2013-03-06 21:20:00,54.8,-2.9,30.45,ESE,102,3.0,0.0,9,0.00,,,0.00,0,WeatherHawk,2013-03-07 03:20:00,
2013-03-06 21:25:00,53.3,-6.5,30.45,ESE,118,3.0,0.0,8,0.00,,,0.00,0,WeatherHawk,2013-03-07 03:25:00,
2013-03-06 21:30:00,53.7,-6.2,30.44,SE,128,1.0,-999.0,8,0.00,,,0.00,0,WeatherHawk,2013-03-07 03:30:00,
2013-03-06 21:35:00,53.7,-6.2,30.45,South,184,2.0,0.0,8,0.00,,,0.00,0,WeatherHawk,2013-03-07 03:35:00,
2013-03-06 21:40:00,53.5,-6.3,30.45,ESE,116,4.0,0.0,8,0.00,,,0.00,1,WeatherHawk,2013-03-07 03:40:00,
2013-03-06 21:45:00,52.8,-6.9,30.44,SE,131,2.0,0.0,8,0.00,,,0.00,0,WeatherHawk,2013-03-07 03:45:00,
2013-03-06 21:50:00,52.3,-7.3,30.45,SE,125,2.0,0.0,8,0.00,,,0.00,0,WeatherHawk,2013-03-07 03:50:00,
2013-03-06 21:55:00,52.0,-10.2,30.45,ESE,119,0.0,0.0,7,0.00,,,0.00,2,WeatherHawk,2013-03-07 03:55:00,
2013-03-06 22:00:00,52.2,-10.0,30.45,SE,144,3.0,0.0,7,0.00,,,0.00,0,WeatherHawk,2013-03-07 04:00:00,
2013-03-06 22:05:00,51.5,-10.6,30.46,SE,132,0.0,0.0,7,0.00,,,0.00,0,WeatherHawk,2013-03-07 04:05:00,
2013-03-06 22:10:00,51.7,-1.0,30.44,SE,140,1.0,0.0,11,0.00,,,0.00,1,WeatherHawk,2013-03-07 04:10:00,
2013-03-06 22:15:00,48.6,-5.5,30.46,SE,134,0.0,0.0,10,0.00,,,0.00,0,WeatherHawk,2013-03-07 04:15:00,
2013-03-06 22:20:00,50.3,-2.1,30.45,SE,134,0.0,0.0,11,0.00,,,0.00,0,WeatherHawk,2013-03-07 04:20:00,
2013-03-06 22:25:00,51.0,-1.6,30.46,SE,134,0.0,0.0,11,0.00,,,0.00,0,WeatherHawk,2013-03-07 04:25:00,
2013-03-06 22:30:00,50.5,1.6,30.46,NNE,17,0.0,0.0,13,0.00,,,0.00,0,WeatherHawk,2013-03-07 04:30:00,
2013-03-06 22:35:00,48.6,-5.5,30.47,NNE,17,0.0,0.0,10,0.00,,,0.00,0,WeatherHawk,2013-03-07 04:35:00,
2013-03-06 22:40:00,48.1,-0.4,30.46,NNE,17,0.0,0.0,13,0.00,,,0.00,1,WeatherHawk,2013-03-07 04:40:00,
2013-03-06 22:45:00,48.7,-1.6,30.47,ESE,113,0.0,0.0,12,0.00,,,0.00,0,WeatherHawk,2013-03-07 04:45:00,
2013-03-06 22:51:00,48.0,-4.0,30.46,East,82,0.0,0.0,11,0.00,,,0.00,0,WeatherHawk,2013-03-07 04:51:00,
2013-03-06 22:56:00,49.4,2.2,30.47,East,82,0.0,0.0,14,0.00,,,0.00,0,WeatherHawk,2013-03-07 04:56:00,
2013-03-06 23:00:00,49.1,-3.1,30.47,East,82,0.0,0.0,11,0.00,,,0.00,1,WeatherHawk,2013-03-07 05:00:00,
2013-03-06 23:01:00,49.3,2.2,30.46,East,82,0.0,0.0,14,0.00,,,0.00,0,WeatherHawk,2013-03-07 05:01:00,
2013-03-06 23:03:00,49.2,3.6,30.46,East,82,0.0,0.0,15,0.00,,,0.00,0,WeatherHawk,2013-03-07 05:03:00,
2013-03-06 23:08:00,48.4,2.9,30.46,East,82,0.0,0.0,15,0.00,,,0.00,0,WeatherHawk,2013-03-07 05:08:00,
2013-03-06 23:13:00,47.7,2.4,30.45,East,82,0.0,0.0,15,0.00,,,0.00,1,WeatherHawk,2013-03-07 05:13:00,
2013-03-06 23:18:00,48.2,4.1,30.46,East,82,0.0,0.0,16,0.00,,,0.00,0,WeatherHawk,2013-03-07 05:18:00,
2013-03-06 23:23:00,48.2,2.8,30.46,East,82,0.0,0.0,15,0.00,,,0.00,0,WeatherHawk,2013-03-07 05:23:00,
2013-03-06 23:29:00,47.8,2.4,30.46,East,82,0.0,0.0,15,0.00,,,0.00,0,WeatherHawk,2013-03-07 05:29:00,
2013-03-06 23:34:00,46.2,8.4,30.46,East,82,0.0,0.0,21,0.00,,,0.00,0,WeatherHawk,2013-03-07 05:34:00,
2013-03-06 23:39:00,46.3,5.2,30.48,East,82,0.0,0.0,18,0.00,,,0.00,1,WeatherHawk,2013-03-07 05:39:00,
2013-03-06 23:44:00,46.4,7.6,30.47,East,82,0.0,0.0,20,0.00,,,0.00,0,WeatherHawk,2013-03-07 05:44:00,
2013-03-06 23:49:00,46.8,6.8,30.47,ESE,110,2.0,0.0,19,0.00,,,0.00,1,WeatherHawk,2013-03-07 05:49:00,
2013-03-06 23:54:00,46.8,3.0,30.46,ESE,117,2.0,0.0,16,0.00,,,0.00,0,WeatherHawk,2013-03-07 05:54:00,